TimeEST,TemperatureF,Dew PointF,Humidity,Sea Level PressureIn,VisibilityMPH,Wind Direction,Wind SpeedMPH,Gust SpeedMPH,PrecipitationIn,Events,Conditions,WindDirDegrees,DateUTC
12:52 AM,39.9,36.0,86,30.12,10.0,NNE,5.8,-,N/A,,Overcast,20,2012-11-04 04:52:00
1:52 AM,39.9,36.0,86,30.12,10.0,North,5.8,-,N/A,,Overcast,10,2012-11-04 05:52:00
1:52 AM,37.9,34.0,86,30.13,9.0,NNW,9.2,-,N/A,,Clear,340,2012-11-04 06:52:00
2:52 AM,36.0,33.1,89,30.12,10.0,North,9.2,-,N/A,,Clear,10,2012-11-04 07:52:00
3:52 AM,36.0,32.0,86,30.13,10.0,North,8.1,-,N/A,,Clear,350,2012-11-04 08:52:00
4:52 AM,35.1,30.9,85,30.14,10.0,North,4.6,-,N/A,,Partly Cloudy,10,2012-11-04 09:52:00
5:52 AM,34.0,30.9,89,30.14,10.0,North,3.5,-,N/A,,Clear,360,2012-11-04 10:52:00
6:52 AM,33.1,30.9,92,30.14,9.0,North,5.8,-,N/A,,Mostly Cloudy,350,2012-11-04 11:52:00
7:52 AM,33.1,30.0,89,30.17,7.0,NNW,4.6,-,N/A,,Mostly Cloudy,340,2012-11-04 12:52:00
8:52 AM,36.0,32.0,86,30.17,8.0,North,4.6,-,N/A,,Mostly Cloudy,360,2012-11-04 13:52:00
9:52 AM,39.9,34.0,79,30.17,10.0,North,3.5,-,N/A,,Scattered Clouds,360,2012-11-04 14:52:00
10:52 AM,44.1,34.0,68,30.15,10.0,Calm,Calm,-,N/A,,Mostly Cloudy,0,2012-11-04 15:52:00
11:52 AM,46.0,32.0,58,30.17,10.0,Calm,Calm,-,N/A,,Mostly Cloudy,0,2012-11-04 16:52:00
12:52 PM,46.9,33.1,59,30.14,10.0,North,5.8,-,N/A,,Scattered Clouds,350,2012-11-04 17:52:00
1:52 PM,46.0,30.9,56,30.14,10.0,NNW,8.1,-,N/A,,Scattered Clouds,330,2012-11-04 18:52:00
2:52 PM,48.0,32.0,54,30.13,10.0,NNW,6.9,-,N/A,,Mostly Cloudy,340,2012-11-04 19:52:00
3:52 PM,46.9,30.9,54,30.13,10.0,NNW,6.9,-,N/A,,Scattered Clouds,330,2012-11-04 20:52:00
4:52 PM,44.1,32.0,63,30.13,10.0,NNW,11.5,-,N/A,,Mostly Cloudy,340,2012-11-04 21:52:00
5:52 PM,42.1,30.9,65,30.14,10.0,NNW,12.7,-,N/A,,Scattered Clouds,340,2012-11-04 22:52:00
6:52 PM,41.0,30.0,65,30.16,10.0,NNW,8.1,-,N/A,,Mostly Cloudy,340,2012-11-04 23:52:00
7:52 PM,39.0,30.0,70,30.17,10.0,North,11.5,-,N/A,,Scattered Clouds,350,2012-11-05 00:52:00
8:52 PM,37.9,28.9,70,30.17,10.0,North,8.1,-,N/A,,Mostly Cloudy,350,2012-11-05 01:52:00
9:52 PM,36.0,27.0,70,30.17,10.0,NNW,5.8,-,N/A,,Partly Cloudy,340,2012-11-05 02:52:00
10:52 PM,36.0,27.0,70,30.16,10.0,NNW,4.6,-,N/A,,Mostly Cloudy,340,2012-11-05 03:52:00